Location: Dreilärchen
(47.9312°N, 8.6113°E)
Time: 21:50:24
(UTC+00:00)

Cosmos 1674 - Pass Details

Date: 26 May 2022
Orbit: 487 x 509 km, 82.5° (Epoch: 03 July)

Event Time Altitude Azimuth Distance (km) Brightness Sun altitude
Exits shadow 00:11:45 35° 264° (W) 819 3.5 -20.1°
Maximum altitude 00:12:16 37° 285° (WNW) 789 3.6 -20.1°
Drops below altitude 10° 00:15:49 10° 354° (N) 1,724 6.4 -20.0°
Sets 00:18:04 0° 3° (N) 2,618 7.8 -19.9°
